| time (UTC) | temp C | wind direction | speed KPH | gust KPH | rain 1hr cm | rain 24hr cm | rain mn cm | humidity % | barometer mb |
| 20260503233127 | 11 | 7 | 0.0 | 4.8 | 0.00 | 0.00 | 0.00 | 66 | 1011.8 |
| 20260503231626 | 11 | 104 | 0.0 | 1.6 | 0.00 | 0.00 | 0.00 | 65 | 1011.9 |
| 20260503230122 | 12 | 103 | 1.6 | 3.2 | 0.00 | 0.00 | 0.00 | 64 | 1012.0 |
| 20260503224622 | 12 | 315 | 4.8 | 4.8 | 0.00 | 0.00 | 0.00 | 63 | 1012.0 |
| 20260503223120 | 13 | 109 | 0.0 | 3.2 | 0.00 | 0.00 | 0.00 | 60 | 1011.8 |
| 20260503221619 | 13 | 91 | 3.2 | 6.4 | 0.00 | 0.00 | 0.00 | 59 | 1011.7 |
| 20260503220115 | 15 | 94 | 1.6 | 3.2 | 0.00 | 0.00 | 0.00 | 42 | 1011.4 |
| 20260503214613 | 16 | 328 | 4.8 | 6.4 | 0.00 | 0.00 | 0.00 | 40 | 1011.4 |
| 20260503213110 | 15 | 89 | 1.6 | 9.7 | 0.00 | 0.00 | 0.00 | 41 | 1011.5 |
| 20260503211608 | 16 | 285 | 6.4 | 9.7 | 0.00 | 0.00 | 0.00 | 41 | 1011.6 |
| 20260503204558 | 16 | 251 | 1.6 | 3.2 | 0.00 | 0.00 | 0.00 | 42 | 1011.7 |
| 20260503203055 | 16 | 92 | 3.2 | 4.8 | 0.00 | 0.00 | 0.00 | 39 | 1012.1 |
| 20260503201554 | 17 | 167 | 1.6 | 9.7 | 0.00 | 0.00 | 0.00 | 38 | 1012.1 |
| 20260503200050 | 16 | 130 | 3.2 | 4.8 | 0.00 | 0.00 | 0.00 | 39 | 1012.5 |
| 20260503194547 | 17 | 175 | 1.6 | 3.2 | 0.00 | 0.00 | 0.00 | 37 | 1012.7 |
| 20260503193044 | 17 | 133 | 3.2 | 4.8 | 0.00 | 0.00 | 0.00 | 37 | 1012.5 |
| 20260503191539 | 17 | 310 | 1.6 | 3.2 | 0.00 | 0.00 | 0.00 | 38 | 1013.0 |
| 20260503190036 | 17 | 157 | 6.4 | 12.9 | 0.00 | 0.00 | 0.00 | 37 | 1013.5 |
| 20260503184534 | 17 | 273 | 1.6 | 1.6 | 0.00 | 0.00 | 0.00 | 39 | 1013.3 |
| 20260503183031 | 16 | 75 | 4.8 | 12.9 | 0.00 | 0.00 | 0.00 | 41 | 1013.6 |
| 20260503181529 | 17 | 295 | 0.0 | 4.8 | 0.00 | 0.00 | 0.00 | 40 | 1013.7 |
| 20260503180026 | 17 | 39 | 4.8 | 6.4 | 0.00 | 0.00 | 0.00 | 39 | 1013.9 |
| 20260503174524 | 17 | 276 | 3.2 | 4.8 | 0.00 | 0.00 | 0.00 | 39 | 1013.9 |
| 20260503173023 | 16 | 298 | 6.4 | 9.7 | 0.00 | 0.00 | 0.00 | 41 | 1014.1 |
| 20260503171520 | -17 | 0.0 | 0.0 | 0.00 | 0.00 | 0.00 | 1014.3 | ||
| 20260503081346 | 0 | 288 | 0.0 | 0.0 | 0.00 | 0.00 | 0.00 | 90 | 1015.8 |
| 20260503072840 | 0 | 288 | 0.0 | 0.0 | 0.00 | 0.00 | 0.00 | 89 | 1015.9 |
| 20260503071337 | 1 | 288 | 0.0 | 0.0 | 0.00 | 0.00 | 0.00 | 88 | 1016.0 |
| 20260503054327 | 1 | 288 | 0.0 | 0.0 | 0.00 | 0.00 | 0.00 | 87 | 1016.1 |
| 20260503052825 | 1 | 288 | 0.0 | 0.0 | 0.00 | 0.00 | 0.00 | 87 | 1016.2 |
| 20260503051321 | 1 | 288 | 0.0 | 0.0 | 0.00 | 0.00 | 0.00 | 86 | 1016.3 |
| 20260503045817 | 2 | 288 | 0.0 | 0.0 | 0.00 | 0.00 | 0.00 | 85 | 1016.5 |
| 20260503044314 | 2 | 288 | 0.0 | 0.0 | 0.00 | 0.00 | 0.00 | 87 | 1016.2 |
| 20260503042809 | 2 | 288 | 0.0 | 0.0 | 0.00 | 0.00 | 0.00 | 85 | 1016.3 |
| 20260503041306 | 2 | 288 | 0.0 | 0.0 | 0.00 | 0.00 | 0.00 | 85 | 1016.4 |
| 20260503035803 | 2 | 288 | 0.0 | 0.0 | 0.00 | 0.00 | 0.00 | 84 | 1016.4 |
| 20260503034300 | 3 | 288 | 0.0 | 0.0 | 0.00 | 0.00 | 0.00 | 85 | 1016.2 |
| 20260503032758 | 3 | 288 | 0.0 | 0.0 | 0.00 | 0.00 | 0.00 | 85 | 1016.2 |
| 20260503031257 | 3 | 288 | 0.0 | 0.0 | 0.00 | 0.00 | 0.00 | 83 | 1016.4 |
| 20260503025757 | 3 | 288 | 0.0 | 0.0 | 0.00 | 0.00 | 0.00 | 77 | 1016.3 |
| 20260503024255 | 4 | 288 | 0.0 | 0.0 | 0.00 | 0.00 | 0.00 | 74 | 1016.5 |
| 20260503022750 | 4 | 288 | 0.0 | 0.0 | 0.00 | 0.00 | 0.00 | 74 | 1016.8 |
| 20260503021249 | 5 | 288 | 0.0 | 0.0 | 0.00 | 0.00 | 0.00 | 73 | 1016.7 |
| 20260503015747 | 5 | 288 | 0.0 | 0.0 | 0.00 | 0.00 | 0.00 | 73 | 1016.5 |
| 20260503014243 | 5 | 288 | 0.0 | 0.0 | 0.00 | 0.00 | 0.00 | 73 | 1016.3 |
| 20260503012741 | 5 | 288 | 0.0 | 0.0 | 0.00 | 0.00 | 0.00 | 68 | 1016.4 |
| 20260503011238 | 5 | 288 | 0.0 | 0.0 | 0.00 | 0.00 | 0.00 | 67 | 1016.4 |
| 20260503005734 | 5 | 288 | 0.0 | 0.0 | 0.00 | 0.00 | 0.00 | 64 | 1016.3 |
| 20260503004231 | 6 | 288 | 0.0 | 0.0 | 0.00 | 0.00 | 0.00 | 63 | 1016.4 |
| 20260503002728 | 6 | 288 | 0.0 | 0.0 | 0.00 | 0.00 | 0.00 | 59 | 1016.4 |
| 20260503001223 | 7 | 311 | 0.0 | 0.0 | 0.00 | 0.00 | 0.00 | 54 | 1016.1 |
| 20260502235721 | 7 | 296 | 0.0 | 1.6 | 0.00 | 0.00 | 0.00 | 50 | 1016.2 |
| 20260502234218 | 8 | 296 | 1.6 | 1.6 | 0.00 | 0.00 | 0.00 | 50 | 1016.1 |